Home   Weather   Loma Linda   Past weeks

Flag for USA Past Weather in Loma Linda, California, USA — Yesterday and Last 2 Weeks

62 °F


Feels Like: 62 °F
Forecast: 58 / 82 °F
Wind: No wind

Location: Norton Air Force Base / San Bern

Current Time: Oct 27, 2016 at 4:20:50 AM

Latest Report: Oct 27, 2016 at 3:53 AM

Visibility: 10 mi

Pressure: 30.00 "Hg

Humidity: 78%

Dew Point: 55 °F

Location of Loma LindaLocation

Past Weather in Loma Linda — Graph


Loma Linda Temperature Yesterday

Maximum temperature yesterday: 84 °F (at 2:47 PM)
Minimum temperature yesterday: 55 °F (at 6:33 AM)
Average temperature yesterday: 64 °F

High & Low Weather Summary for the Past Weeks

High99 °F (Oct 14, 5:49 PM)94% (Oct 24, 7:00 AM)30.15 "Hg (Oct 24, 7:00 AM)
Low51 °F (Oct 13, 6:53 AM)5% (Oct 21, 2:48 PM)29.83 "Hg (Oct 21, 3:47 PM)
Average65 °F58%30.00 "Hg
* Reported Oct 12 3:14 AM — Oct 27 3:13 AM, Loma Linda, Weather by CustomWeather, © 2016

Note: Actual official high and low records may vary slightly from our data, if they occured in-between our weather recording intervals... More about our weather records


Loma Linda Weather History for the Previous 24 Hours

Scroll right to see more
Time TempWeatherWind HumidityBarometerVisibility
3:13 AM
Thu, Oct 27
62 °FClear.No wind74%30.00 "Hg10 mi
2:53 AM64 °FClear.No wind72%30.00 "Hg10 mi
2:33 AM64 °FClear.3 mph76%30.00 "Hg10 mi
2:14 AM64 °FClear.3 mph76%30.00 "Hg10 mi
1:53 AM64 °FClear.No wind70%30.01 "Hg10 mi
1:33 AM65 °FClear.No wind63%30.01 "Hg10 mi
1:14 AM65 °FClear.No wind65%30.01 "Hg10 mi
12:53 AM66 °FClear.6 mph68%30.01 "Hg10 mi
12:33 AM65 °FClear.3 mph67%30.03 "Hg10 mi
12:14 AM65 °FClear.5 mph72%30.03 "Hg10 mi
11:53 PM
Wed, Oct 26
65 °FClear.No wind72%30.03 "Hg7 mi
11:33 PM65 °FClear.No wind71%30.03 "Hg10 mi
11:14 PM65 °FClear.No wind72%30.03 "Hg7 mi
10:53 PM67 °FClear.No wind66%30.02 "Hg10 mi
10:33 PM67 °FClear.No wind66%30.02 "Hg10 mi
10:14 PM67 °FClear.No wind68%30.02 "Hg10 mi
9:53 PM66 °FClear.No wind74%30.02 "Hg7 mi
9:33 PM69 °FClear.No wind67%30.01 "Hg7 mi
9:14 PM67 °FClear.No wind73%30.01 "Hg7 mi
8:50 PM70 °FPassing clouds.No wind88%30.00 "Hg5 mi
7:47 PM73 °FPassing clouds.No wind53%30.00 "Hg5 mi
6:47 PM73 °FPassing clouds.No wind53%29.99 "Hg5 mi
5:50 PM77 °FPartly sunny.6 mph47%29.97 "Hg5 mi
4:50 PM81 °FPartly sunny.8 mph37%29.97 "Hg5 mi
3:50 PM84 °FPartly sunny.9 mph31%29.98 "Hg5 mi
2:47 PM84 °FPartly sunny.7 mph31%29.98 "Hg7 mi
1:47 PM82 °FPartly sunny.9 mph30%30.00 "Hg7 mi
12:45 PM75 °FPartly sunny.3 mph41%30.04 "Hg7 mi
11:48 AM75 °FPartly sunny.No wind41%30.06 "Hg7 mi
9:50 AM68 °FPartly sunny.No wind56%30.11 "Hg7 mi
8:45 AM63 °FPartly sunny.No wind64%30.09 "Hg10 mi
7:47 AM57 °FPartly sunny.No wind77%30.06 "Hg10 mi
7:00 AM55 °FPassing clouds.6 mph88%30.05 "Hg10 mi
6:33 AM55 °FClear.No wind84%30.05 "Hg10 mi
6:14 AM56 °FClear.No wind82%30.06 "Hg10 mi
5:53 AM56 °FClear.No wind83%30.06 "Hg10 mi
5:33 AM56 °FClear.No wind84%30.06 "Hg10 mi
5:13 AM57 °FClear.No wind83%30.06 "Hg10 mi
4:53 AM56 °FClear.No wind84%30.06 "Hg10 mi
4:34 AM58 °FClear.No wind84%30.05 "Hg10 mi
4:13 AM57 °FClear.No wind83%30.04 "Hg10 mi
Weather by CustomWeather, © 2016

See weather overviewHow to use our weather pages